Location: Krakow
(50.0830°N, 19.9170°E)
Time: 16:49:35
(UTC+02:00)

Courier 1B - Pass Details

Date: 21 March 2026
Orbit: 962 x 1209 km, 28.3° (Epoch: 19 April)

Event Time Altitude Azimuth Distance (km) Brightness Sun altitude
Rises 09:11:02 0° 234° (SW) 4,023 10.6 30.1°
Reaches altitude 10° 09:16:11 10° 205° (SSW) 3,003 10.4 30.7°
Maximum altitude 09:18:36 12° 186° (S) 2,840 10.6 31.0°
Drops below altitude 10° 09:20:58 10° 166° (SSE) 2,942 11.1 31.2°
Sets 09:25:52 0° 137° (SE) 3,830 11.7 31.8°
